[[{"header":{"parameterUnit":"m.s-1","parameterCategory":1,"la1":30.2992,"la2":30.254,"lo1":-89.0895,"lo2":-89.0443,"dy":0.0025,"dx":0.0025,"nx":19,"ny":19,"refTime":"2026-04-09T09:00:00:Z","depth":0,"parameterNumber":2,"parameterNumberName":"U-component_of_WINDS"},"data":[0,0,0,-1.34,-1.3401,-1.3446,-1.3446,-1.3517,-1.3517,0,0,0,0,0,0,0,0,0,0,0,-1.3395,-1.3395,-1.34,-1.3401,-1.3446,-1.3446,-1.3516,-1.3517,0,0,0,0,0,0,0,0,0,0,0,-1.3394,-1.3395,-1.3396,-1.3401,-1.3446,-1.3446,-1.3516,-1.3478,0,0,0,0,0,0,0,0,0,0,-1.3432,-1.3435,-1.3395,-1.3396,-1.3402,-1.3446,-1.3446,-1.3476,-1.348,-1.3502,0,-1.3523,0,-1.3522,-1.3523,-1.3523,0,0,0,-1.3395,-1.3431,-1.3436,-1.3396,-1.3402,-1.3445,-1.3424,-1.3478,-1.3483,-1.3508,-1.3524,-1.3526,-1.3523,-1.3523,-1.3524,-1.367,-1.3671,0,0,-1.3393,-1.3407,-1.3433,-1.344,-1.3433,-1.3423,-1.3425,-1.3481,-1.3499,-1.3524,-1.3528,-1.3524,-1.3524,-1.3525,-1.3669,-1.367,0,0,0,-1.339,-1.3405,-1.3409,-1.3437,-1.3444,-1.3424,-1.3427,-1.3497,-1.3497,-1.3529,-1.3525,-1.3525,-1.3526,-1.3668,-1.367,-1.3731,0,0,0,-1.3388,-1.3403,-1.3408,-1.3417,-1.3443,-1.3471,-1.3442,-1.3493,-1.3499,-1.3524,-1.3525,-1.3526,-1.3667,-1.3669,-1.3727,-1.3758,0,0,0,-1.3389,-1.3403,-1.3412,-1.3417,-1.3437,-1.347,-1.3473,-1.3494,-1.3497,-1.3523,-1.3527,-1.3666,-1.3669,-1.3724,-1.3752,-1.3802,0,0,0,-1.3394,-1.3465,-1.3414,-1.3492,-1.3437,-1.3507,-1.3472,-1.3524,-1.3554,-1.3525,-1.3667,-1.367,-1.3722,-1.3748,-1.3798,-1.3847,-1.3868,0,0,-1.3491,-1.3477,-1.3522,-1.3478,-1.3561,-1.3499,-1.3592,-1.3606,-1.3595,-1.3646,-1.3649,-1.3728,-1.3752,-1.3801,-1.3981,-1.3998,0,0,0,-1.3558,-1.3591,-1.361,-1.3639,-1.3652,-1.3667,-1.3665,-1.3671,-1.3714,-1.3624,-1.3759,-1.3772,-1.3801,-1.3824,-1.3838,-1.3863,-1.368,-1.368,-1.368,-1.3716,-1.37,-1.3774,-1.3764,-1.3793,-1.3792,-1.3815,-1.3823,-1.3797,-1.3829,-1.3844,-1.3956,-1.3983,-1.3994,-1.4019,-1.3868,-1.3868,-1.3868,-1.3868,-1.3858,-1.3903,-1.3869,-1.3929,-1.3912,-1.3962,-1.3965,-1.3946,-1.3991,-1.3942,-1.3966,-1.3915,-1.4013,-1.4035,-1.3873,-1.3872,-1.3872,-1.3871,-1.3871,-1.3961,-1.398,-1.3986,-1.4028,-1.4063,-1.4051,-1.4097,-1.4079,-1.4063,-1.4087,-1.4102,-1.4101,-1.41,-1.4095,-1.4096,-1.4096,-1.4097,-1.4097,-1.4097,-1.4065,-1.407,-1.4111,-1.4132,-1.415,-1.4172,-1.4173,-1.419,-1.4205,-1.4189,-1.4189,-1.4162,-1.4025,-1.3992,-1.4103,-1.4102,-1.4101,-1.4101,-1.41,-1.4217,-1.4181,-1.4243,-1.4262,-1.4287,-1.4324,-1.4302,-1.4339,-1.4351,-1.4375,-1.4343,-1.4244,-1.4228,-1.4216,-1.4189,-1.4344,-1.4344,-1.4344,-1.4344,-1.4305,-1.4295,-1.4357,-1.4388,-1.4415,-1.4402,-1.4476,-1.4479,-1.4476,-1.4483,-1.4457,-1.4419,-1.4408,-1.4399,-1.4383,-1.4357,-1.4553,-1.4553,-1.4553,-1.4398,-1.4391,-1.4457,-1.4453,-1.4472,-1.449,-1.4559,-1.4597,-1.4585,-1.4561,-1.4488,-1.4479,-1.4417,-1.4398,-1.4372,-1.4348,-1.43,0,0]},{"header":{"parameterUnit":"m.s-1","parameterCategory":1,"la1":30.2992,"la2":30.254,"lo1":-89.0895,"lo2":-89.0443,"dy":0.0025,"dx":0.0025,"nx":19,"ny":19,"refTime":"2026-04-09T09:00:00:Z","depth":0,"parameterNumber":3,"parameterNumberName":"V-component_of_WINDS"},"data":[0,0,0,-1.414,-1.4142,-1.4251,-1.4252,-1.4384,-1.4385,0,0,0,0,0,0,0,0,0,0,0,-1.4103,-1.4104,-1.414,-1.4142,-1.4251,-1.4252,-1.4384,-1.4385,0,0,0,0,0,0,0,0,0,0,0,-1.4103,-1.4104,-1.4105,-1.4143,-1.4251,-1.4252,-1.4383,-1.4304,0,0,0,0,0,0,0,0,0,0,-1.4199,-1.4161,-1.4104,-1.4105,-1.4143,-1.4251,-1.4252,-1.43,-1.4309,-1.4331,0,-1.435,0,-1.437,-1.4393,-1.4394,0,0,0,-1.4146,-1.4154,-1.4187,-1.4105,-1.4144,-1.4251,-1.4203,-1.4305,-1.4315,-1.4343,-1.4352,-1.4357,-1.4372,-1.4394,-1.4395,-1.4513,-1.4513,0,0,-1.414,-1.4121,-1.418,-1.4193,-1.4176,-1.42,-1.4206,-1.4311,-1.432,-1.4353,-1.436,-1.4374,-1.4395,-1.4396,-1.4512,-1.4513,0,0,0,-1.412,-1.4116,-1.4147,-1.4187,-1.4208,-1.4203,-1.4211,-1.4315,-1.4327,-1.4362,-1.4375,-1.4396,-1.4397,-1.4512,-1.4512,-1.4512,0,0,0,-1.4117,-1.4105,-1.4144,-1.4134,-1.4206,-1.4263,-1.4212,-1.432,-1.4332,-1.4375,-1.4396,-1.4398,-1.4511,-1.4512,-1.4512,-1.4516,0,0,0,-1.4098,-1.4103,-1.4117,-1.4132,-1.4179,-1.4262,-1.428,-1.4323,-1.434,-1.4394,-1.4399,-1.4511,-1.4512,-1.4511,-1.4514,-1.454,0,0,0,-1.4072,-1.4116,-1.4117,-1.4171,-1.4178,-1.4261,-1.4279,-1.4342,-1.4388,-1.4396,-1.4511,-1.4512,-1.4511,-1.4514,-1.4539,-1.4558,-1.4564,0,0,-1.4117,-1.4121,-1.4155,-1.4158,-1.4236,-1.4246,-1.4324,-1.4385,-1.4408,-1.4476,-1.4479,-1.4512,-1.4514,-1.454,-1.4607,-1.4612,0,0,0,-1.4163,-1.4186,-1.4211,-1.4254,-1.4301,-1.4341,-1.4391,-1.4413,-1.4472,-1.4439,-1.4529,-1.4531,-1.4547,-1.4557,-1.4561,-1.4576,-1.4516,-1.4516,-1.4516,-1.4199,-1.4225,-1.4282,-1.4321,-1.4362,-1.4413,-1.4449,-1.4487,-1.4503,-1.4523,-1.4544,-1.4581,-1.4592,-1.4595,-1.461,-1.4556,-1.4556,-1.4556,-1.4556,-1.4267,-1.4305,-1.4323,-1.4385,-1.4412,-1.4464,-1.4515,-1.4523,-1.4576,-1.4568,-1.4584,-1.4572,-1.4599,-1.4614,-1.4557,-1.4557,-1.4557,-1.4557,-1.4557,-1.4294,-1.4316,-1.4342,-1.4405,-1.4451,-1.4489,-1.4538,-1.4562,-1.4584,-1.4599,-1.4623,-1.4623,-1.4625,-1.4609,-1.4609,-1.4609,-1.4609,-1.4609,-1.461,-1.4311,-1.434,-1.4378,-1.4431,-1.446,-1.4502,-1.4553,-1.4583,-1.4622,-1.4636,-1.4636,-1.4648,-1.4597,-1.4584,-1.4612,-1.4611,-1.4611,-1.4611,-1.4611,-1.4369,-1.4359,-1.4418,-1.4448,-1.4511,-1.4554,-1.4583,-1.4642,-1.467,-1.4694,-1.4703,-1.4662,-1.4667,-1.4664,-1.4653,-1.4697,-1.4697,-1.4697,-1.4697,-1.4391,-1.4396,-1.4461,-1.4507,-1.4554,-1.4586,-1.4651,-1.4691,-1.473,-1.4749,-1.4746,-1.4734,-1.4729,-1.4738,-1.4733,-1.4723,-1.4784,-1.4784,-1.4784,-1.4428,-1.4438,-1.449,-1.4527,-1.4578,-1.4621,-1.4683,-1.4734,-1.4777,-1.4788,-1.4764,-1.4761,-1.474,-1.4733,-1.4743,-1.4735,-1.4717,0,0]}]]